1505088000.27,51975,14.38,73568.5,4.65,-5.73,-5.19,0,*79
1505088001.51,51976,14.31,73564.0,4.63,-6.01,-5.31,0,*70
1505088002.73,51977,14.38,73570.0,4.63,-6.39,-5.35,0,*7E
1505088003.97,51978,14.31,73560.3,4.63,-6.13,-4.85,0,*73
1505088005.17,51979,14.38,73562.3,4.61,-5.51,-3.95,0,*73
1505088006.4,51980,14.31,73562.5,4.61,-4.89,-3.59,0,*71
1505088007.61,51981,14.38,73570.3,4.61,-4.99,-3.43,0,*7A
1505088008.84,51982,14.31,73572.3,4.61,-4.89,-3.71,0,*79
1505088010.06,51983,14.38,73582.5,4.61,-5.03,-3.79,0,*73
1505088011.27,51984,14.31,73582.0,4.61,-4.09,-3.43,0,*76
1505088012.52,51985,14.31,73578.5,4.61,-5.03,-4.01,0,*7D
1505088013.73,51986,14.31,73582.8,4.61,-4.21,-3.67,0,*78
1505088014.95,51987,14.38,73580.0,4.63,-5.43,-4.57,0,*7A
1505088016.17,51988,14.31,73582.8,4.61,-4.89,-4.57,0,*70
1505088017.37,51989,14.31,73590.8,4.61,-3.91,-3.07,0,*7D
1505088018.57,51990,14.38,73594.8,4.61,-3.79,-3.07,0,*73
1505088019.8,51991,14.31,73592.0,4.61,-4.81,-3.71,0,*73
1505088021.0,51992,14.31,73590.0,4.61,-4.37,-3.71,0,*7D
1505088022.19,51993,14.31,73590.3,4.61,-4.37,-3.91,0,*72
1505088023.41,51994,14.31,73584.5,4.61,-5.61,-4.57,0,*7A
1505088024.62,51995,14.38,73590.0,4.61,-5.77,-4.45,0,*7F
1505088025.81,51996,14.31,73588.8,4.61,-2.91,-2.31,0,*76
1505088027.03,51997,14.31,73598.8,4.61,-1.39,-0.57,0,*44
1505088028.23,51998,14.31,73588.8,4.61,-0.45,0.29,0,*55
1505088029.44,51999,14.31,73580.8,4.57,-0.81,0.55,0,*52
1505088030.68,52000,14.31,73580.8,4.61,-1.05,0.21,0,*63
1505088031.86,52001,14.31,73582.3,4.57,-1.67,-1.29,0,*77
1505088033.09,52002,14.31,73578.5,4.57,-1.43,-0.93,0,*42
1505088034.28,52003,14.31,73580.3,4.61,-0.53,-0.11,0,*7C
1505088035.51,52004,14.38,73586.0,4.61,0.79,0.91,0,*7B
1505088036.73,52005,14.38,73560.8,4.61,1.47,1.51,0,*7B
1505088037.96,52006,14.31,73558.5,4.57,1.89,2.09,0,*71
1505088039.16,52007,14.38,73562.3,4.57,1.79,2.25,0,*71
1505088040.38,52008,14.31,73568.8,4.57,1.63,2.21,0,*71
1505088041.61,52009,14.38,73566.3,4.57,1.55,2.21,0,*75
1505088042.81,52010,14.38,73576.5,4.61,-0.33,0.63,0,*50
1505088043.99,52011,14.31,73560.8,4.61,-1.51,-0.45,0,*4D
1505088045.2,52012,14.38,73576.8,4.57,-1.39,-0.45,0,*45
1505088046.4,52013,14.38,73582.0,4.57,-0.93,-0.53,0,*72
1505088047.66,52014,14.38,73584.8,4.55,-1.43,-1.01,0,*7D
1505088048.9,52015,14.38,73568.3,4.57,-3.67,-2.59,0,*74
1505088050.08,52016,14.31,73564.0,4.57,-2.39,-0.53,0,*45
1505088051.28,52017,14.38,73566.0,4.57,-1.79,0.21,0,*6B
1505088052.48,52018,14.38,73572.5,4.61,-2.27,-0.41,0,*42
1505088053.65,52019,14.38,73564.8,4.57,-2.27,-0.65,0,*40
1505088054.86,52020,14.38,73572.5,4.57,-0.19,0.21,0,*58
1505088056.05,52021,14.38,73560.5,4.61,0.09,0.55,0,*43
1505088057.27,52022,14.38,73570.5,4.57,0.79,1.29,0,*48
1505088058.5,52023,14.31,73572.0,4.61,0.83,1.37,0,*46
1505088059.73,52024,14.38,73566.0,4.57,1.29,2.01,0,*73
1505088060.94,52025,14.38,73548.8,4.61,1.75,2.39,0,*75
1505088062.17,52026,14.38,73544.5,4.57,2.25,2.81,0,*76
1505088063.37,52027,14.38,73572.0,4.57,2.35,2.85,0,*72
1505088064.54,52028,14.31,73568.5,4.57,2.35,2.91,0,*78
1505088065.75,52029,14.38,73558.0,4.61,1.89,2.61,0,*77
1505088066.95,52030,14.38,73572.8,4.57,1.75,2.47,0,*7D
1505088068.19,52031,14.38,73560.3,4.61,1.63,2.51,0,*79
1505088069.42,52032,14.31,73574.8,4.61,1.85,2.47,0,*75
1505088070.65,52033,14.31,73566.5,4.57,2.09,2.51,0,*71
1505088071.86,52034,14.38,73566.3,4.61,1.89,2.61,0,*7B
1505088073.09,52035,14.31,73568.5,4.61,1.47,2.47,0,*7C
1505088074.34,52036,14.38,73578.0,4.63,1.59,2.43,0,*76
1505088075.55,52037,14.38,73576.0,4.63,0.43,1.55,0,*49
1505088076.77,52038,14.31,73568.0,4.63,-0.03,0.95,0,*62
1505088077.98,52039,14.38,73576.3,4.61,-1.05,0.43,0,*6D
1505088079.19,52040,14.38,73574.8,4.61,-0.41,0.75,0,*57
1505088080.42,52041,14.38,73570.3,4.63,-0.73,0.67,0,*56
1505088081.62,52042,14.38,73568.0,4.63,-0.19,1.05,0,*6C
1505088082.87,52043,14.38,73560.0,4.63,0.87,1.55,0,*42
1505088084.1,52044,14.38,73556.0,4.65,1.21,1.09,0,*77
1505088085.33,52045,14.38,73564.3,4.65,1.33,1.43,0,*7B
1505088086.52,52046,14.38,73572.8,4.65,1.83,1.71,0,*72
1505088087.73,52047,14.38,73572.8,4.63,1.83,1.79,0,*7D
1505088088.99,52048,14.38,73572.3,4.63,2.05,2.17,0,*74
1505088090.24,52049,14.38,73574.3,4.63,2.43,2.43,0,*76
1505088091.48,52050,14.38,73568.3,4.63,2.51,2.65,0,*79
1505088092.68,52051,14.38,73580.0,4.65,2.61,2.73,0,*7A
1505088093.93,52052,14.38,73582.0,4.63,2.43,2.55,0,*7B
1505088095.11,52053,14.38,73590.3,4.65,1.41,1.79,0,*70
1505088096.35,52054,14.38,73586.8,4.63,1.29,1.79,0,*7F
1505088097.54,52055,14.31,73580.0,4.65,1.59,1.83,0,*7A
1505088098.79,52056,14.38,73584.0,4.63,1.51,1.67,0,*7D
1505088100.02,52057,14.38,73568.5,4.65,2.05,2.25,0,*7D
1505088101.25,52058,14.38,73550.8,4.65,2.17,2.17,0,*70
1505088102.45,52059,14.31,73558.8,4.63,1.83,1.83,0,*77
1505088103.68,52060,14.38,73552.8,4.65,1.71,2.13,0,*7C
1505088104.91,52061,14.38,73558.3,4.65,2.43,2.43,0,*7A
1505088106.17,52062,14.38,73568.5,4.63,2.51,2.55,0,*7B
1505088107.39,52063,14.38,73564.5,4.65,2.39,2.39,0,*78
1505088108.65,52064,14.38,73568.3,4.63,2.05,2.17,0,*7A
1505088109.88,52065,14.31,73562.0,4.65,2.39,2.39,0,*7E
1505088111.08,52066,14.38,73570.5,4.65,2.55,2.65,0,*7E
1505088112.26,52067,14.38,73574.8,4.65,2.27,2.61,0,*7E
1505088113.49,52068,14.38,73572.0,4.63,1.79,2.25,0,*7F
1505088114.75,52069,14.38,73568.5,4.63,1.09,1.67,0,*7C
1505088115.94,52070,14.38,73566.8,4.65,0.83,0.97,0,*7F
1505088117.15,52071,14.31,73558.8,4.65,0.59,0.87,0,*78
1505088118.38,52072,14.38,73560.8,4.67,0.17,0.41,0,*79
1505088119.59,52073,14.38,73564.8,4.67,0.17,0.09,0,*44
1505088120.79,52074,14.38,73582.3,4.65,-0.93,-0.77,0,*74
1505088122.0,52075,14.38,73584.3,4.65,-1.05,-0.61,0,*4C
1505088123.27,52076,14.38,73564.0,4.63,-2.75,-1.91,0,*73
1505088124.48,52077,14.31,73550.0,4.65,-3.55,-2.23,0,*7D
1505088125.72,52078,14.31,73540.5,4.67,-1.35,-0.11,0,*47
1505088126.95,52079,14.31,73518.0,4.67,-0.11,0.91,0,*54
1505088128.14,52080,14.31,73538.8,4.65,0.87,1.41,0,*4E
1505088129.37,52081,14.38,73562.5,4.65,0.87,1.09,0,*43
1505088130.53,52082,14.38,73562.5,4.65,0.09,0.43,0,*49
1505088131.68,52083,14.38,73558.0,4.65,0.43,0.97,0,*7F
1505088132.92,52084,14.38,73550.0,4.63,1.17,1.83,0,*7A
1505088134.12,52085,14.38,73550.8,4.65,2.05,2.61,0,*72
1505088135.32,52086,14.38,73554.0,4.65,2.61,3.07,0,*72
1505088136.58,52087,14.38,73556.0,4.67,2.81,3.11,0,*78
1505088137.8,52088,14.38,73556.0,4.69,2.59,2.85,0,*70
1505088139.03,52089,14.38,73550.5,4.69,2.47,2.85,0,*7E
1505088140.27,52090,14.38,73560.8,4.67,2.17,2.65,0,*73
1505088141.52,52091,14.38,73546.0,4.67,2.05,2.47,0,*71
1505088142.77,52092,14.38,73536.3,4.67,0.71,0.91,0,*7A
1505088144.02,52093,14.38,73536.5,4.67,-0.85,-0.27,0,*7D
1505088145.25,52094,14.31,73538.3,4.67,-1.35,-0.61,0,*42
1505088146.52,52095,14.38,73542.3,4.67,-1.87,-1.09,0,*75
1505088147.75,52096,14.38,73550.0,4.67,-1.71,-1.13,0,*74
1505088148.99,52097,14.38,73552.5,4.67,-1.35,-0.77,0,*46
1505088150.21,52098,14.31,73546.0,4.67,-1.21,-0.69,0,*43
1505088151.46,52099,14.38,73550.5,4.67,-0.23,-0.27,0,*7B
1505088152.69,52100,14.38,73564.0,4.67,0.37,-0.11,0,*57
1505088153.92,52101,14.38,73570.5,4.67,0.75,0.25,0,*7A
1505088155.17,52102,14.38,73568.8,4.67,0.83,0.63,0,*72
1505088156.4,52103,14.38,73570.0,4.67,1.01,1.09,0,*75
1505088157.62,52104,14.38,73570.0,4.67,0.97,1.09,0,*4C
1505088158.85,52105,14.38,73574.0,4.67,0.87,1.01,0,*44
1505088160.1,52106,14.38,73578.0,4.67,0.91,0.91,0,*78
1505088161.32,52107,14.38,73574.8,4.67,-0.03,0.17,0,*61
1505088162.56,52108,14.31,73568.5,4.67,0.17,0.41,0,*75
1505088163.8,52109,14.38,73576.5,4.67,0.41,0.47,0,*71
1505088165.01,52110,14.38,73578.0,4.67,0.17,0.09,0,*40
1505088166.22,52111,14.31,73568.8,4.67,0.17,0.01,0,*49
1505088167.42,52112,14.31,73566.5,4.67,0.09,-0.15,0,*6D
1505088168.64,52113,14.38,73572.5,4.69,0.21,0.21,0,*72
1505088169.89,52114,14.38,73576.0,4.67,0.87,0.75,0,*76
1505088171.14,52115,14.38,73570.8,4.67,1.63,1.47,0,*7C
1505088172.39,52116,14.38,73568.0,4.67,2.39,1.85,0,*7D
1505088173.62,52117,14.38,73570.0,4.69,2.43,2.01,0,*70
1505088174.81,52118,14.38,73574.0,4.69,2.13,1.41,0,*7D
1505088176.07,52119,14.38,73568.8,4.67,1.97,1.37,0,*7C
1505088177.33,52120,14.38,73562.8,4.67,1.93,1.33,0,*76
1505088178.55,52121,14.38,73574.8,4.67,1.59,0.97,0,*4E
1505088179.77,52122,14.38,73574.0,4.67,0.97,0.63,0,*75
1505088181.01,52123,14.38,73560.5,4.67,0.51,0.63,0,*7E
1505088182.25,52124,14.38,73562.8,4.67,0.25,0.71,0,*79
1505088183.47,52125,14.38,73556.3,4.67,-0.15,0.25,0,*57
1505088184.67,52126,14.38,73552.8,4.67,-0.37,0.09,0,*6A
1505088185.85,52127,14.31,73548.8,4.65,-0.61,-0.15,0,*7A
1505088187.04,52128,14.38,73552.0,4.65,-1.17,-0.77,0,*41
1505088188.24,52129,14.38,73558.0,4.67,-1.59,-1.33,0,*79
1505088189.49,52130,14.38,73566.8,4.67,-2.07,-1.75,0,*7B
1505088190.75,52131,14.31,73566.8,4.67,-1.95,-1.43,0,*77
1505088191.99,52132,14.38,73564.0,4.67,-1.83,-1.29,0,*7F
1505088193.26,52133,14.38,73574.0,4.67,-1.87,-1.09,0,*78
1505088194.49,52134,14.38,73578.0,4.67,-2.19,-1.35,0,*74
1505088195.68,52135,14.31,73564.8,4.69,-2.35,-1.55,0,*73
1505088196.93,52136,14.38,73562.0,4.67,-2.95,-2.07,0,*70
1505088198.15,52137,14.38,73556.0,4.67,-2.31,-1.63,0,*7E
1505088199.41,52138,14.38,73570.8,4.67,-2.07,-1.01,0,*70
1505088200.65,52139,14.38,73564.8,4.67,-1.35,-0.37,0,*47
1505088201.91,52140,14.38,73560.0,4.67,-1.47,-0.85,0,*45
1505088203.11,52141,14.38,73560.8,4.63,-0.15,-0.29,0,*70
1505088204.3,52142,14.38,73578.0,4.65,0.25,0.09,0,*44
1505088205.5,52143,14.38,73576.5,4.65,-0.89,-0.03,0,*49
1505088206.74,52144,14.38,73552.8,4.65,-3.43,-1.99,0,*79
1505088207.92,52145,14.38,73550.0,4.65,-4.29,-3.39,0,*7B
1505088209.11,52146,14.38,73556.0,4.65,-4.09,-3.27,0,*75
1505088210.32,52147,14.38,73548.8,4.63,-4.41,-3.39,0,*71
1505088211.51,52148,14.38,73558.5,4.65,-3.79,-2.79,0,*71
1505088212.7,52149,14.38,73548.8,4.65,-4.41,-2.99,0,*72
1505088213.9,52150,14.31,73548.5,4.65,-3.95,-1.79,0,*79
1505088215.08,52151,14.38,73560.3,4.65,-3.15,-1.55,0,*7E
1505088216.27,52152,14.38,73564.0,4.65,-4.33,-2.35,0,*7B
1505088217.52,52153,14.38,73562.8,4.63,-4.09,-2.67,0,*72
1505088218.7,52154,14.38,73564.3,4.65,-6.01,-4.17,0,*78
1505088219.92,52155,14.38,73554.8,4.65,-6.81,-5.61,0,*71
1505088221.19,52156,14.38,73560.5,4.63,-7.01,-5.89,0,*7B
1505088222.46,52157,14.38,73560.5,4.63,-5.77,-5.11,0,*78
1505088223.67,52158,14.38,73562.5,4.63,-4.53,-4.05,0,*74
1505088224.88,52159,14.38,73570.5,4.65,-4.29,-3.43,0,*7B
1505088226.09,52160,14.38,73568.5,4.63,-5.43,-4.41,0,*7F
1505088227.28,52161,14.38,73564.8,4.65,-6.81,-5.47,0,*72
1505088228.51,52162,14.38,73566.8,4.63,-7.31,-6.13,0,*7F
1505088229.76,52163,14.38,73570.3,4.63,-7.43,-6.47,0,*7A
1505088231.02,52164,14.38,73570.0,4.63,-8.07,-7.05,0,*75
1505088232.24,52165,14.38,73566.5,4.61,-7.77,-6.81,0,*73
1505088233.46,52166,14.38,73564.5,4.61,-6.05,-5.03,0,*7D
1505088234.68,52167,14.38,73564.0,4.61,-3.79,-3.43,0,*70
1505088235.93,52168,14.38,73570.8,4.61,-1.39,-1.39,0,*76
1505088237.12,52169,14.38,73570.0,4.61,-0.41,-0.19,0,*7A
1505088238.35,52170,14.38,73574.8,4.61,-0.85,-0.23,0,*73
1505088239.59,52171,14.38,73580.8,4.63,-2.55,-1.75,0,*7D
1505088240.81,52172,14.38,73580.8,4.61,-2.47,-2.43,0,*79
1505088242.03,52173,14.38,73576.8,4.61,-2.79,-2.47,0,*71
1505088243.25,52174,14.38,73576.5,4.61,-2.07,-1.21,0,*7C
1505088244.44,52175,14.38,73572.8,4.61,-1.29,-0.65,0,*43
1505088245.68,52176,14.38,73582.3,4.61,-1.09,-1.05,0,*75
1505088246.89,52177,14.38,73584.0,4.61,-2.59,-3.19,0,*7D
1505088248.12,52178,14.38,73586.5,4.63,-4.77,-5.35,0,*72
1505088249.33,52179,14.38,73584.5,4.63,-4.29,-4.17,0,*79
1505088250.55,52180,14.38,73590.3,4.63,-3.03,-2.79,0,*7E
1505088251.76,52181,14.38,73588.0,4.61,-2.03,-1.33,0,*71
1505088252.96,52182,14.38,73590.0,4.61,-1.21,-0.11,0,*40
1505088254.19,52183,14.38,73586.5,4.57,-1.39,0.29,0,*6B
1505088255.41,52184,14.38,73582.8,4.61,0.41,1.17,0,*46
1505088256.61,52185,14.38,73574.5,4.61,1.51,1.79,0,*7F
1505088257.82,52186,14.38,73560.8,4.61,1.89,1.79,0,*79
1505088259.02,52187,14.38,73566.5,4.57,1.75,1.37,0,*74
1505088260.22,52188,14.38,73558.0,4.57,1.67,1.05,0,*79
1505088261.42,52189,14.38,73558.3,4.61,1.75,1.25,0,*7C
1505088262.65,52190,14.38,73556.3,4.61,1.85,1.67,0,*7D
1505088263.88,52191,14.38,73576.8,4.61,2.01,2.09,0,*78
1505088265.08,52192,14.38,73586.5,4.57,2.13,2.35,0,*72
1505088266.31,52193,14.38,73578.3,4.61,1.67,2.21,0,*73
1505088267.51,52194,14.38,73574.3,4.61,0.55,1.75,0,*46
1505088268.74,52195,14.38,73590.8,4.61,-0.23,1.17,0,*6F
1505088269.91,52196,14.38,73588.0,4.61,-0.33,1.01,0,*6A
1505088271.11,52197,14.38,73588.8,4.57,-0.07,1.29,0,*53
1505088272.3,52198,14.38,73556.0,4.57,-0.29,1.13,0,*69
1505088273.51,52199,14.38,73572.0,4.57,0.63,1.29,0,*42
1505088274.7,52200,14.38,73564.3,4.57,0.09,0.29,0,*4C
1505088275.92,52201,14.38,73576.5,4.57,-1.21,-1.91,0,*74
1505088277.11,52202,14.38,73594.8,4.57,-5.35,-6.55,0,*79
1505088278.32,52203,14.38,73556.5,4.57,-7.49,-7.39,0,*7A
1505088279.51,52204,14.38,73578.5,4.57,-7.49,-7.11,0,*77
1505088280.78,52205,14.38,73570.0,4.55,-9.11,-7.27,0,*72
1505088282.02,52206,14.38,73578.3,4.55,-10.41,-8.33,0,*46
1505088283.21,52207,14.38,73576.3,4.53,-9.23,-6.09,0,*7A
1505088284.43,52208,14.38,73590.0,4.53,-6.01,-2.67,0,*76
1505088285.7,52209,14.38,73582.8,4.55,-3.63,-1.05,0,*77
1505088286.93,52210,14.38,73564.0,4.53,-2.51,-1.01,0,*7D
1505088288.13,52211,14.38,73566.8,4.53,-2.87,-1.51,0,*72
1505088289.34,52212,14.38,73578.3,4.53,-3.51,-1.17,0,*79
1505088290.54,52213,14.38,73580.8,4.53,-7.15,-4.29,0,*74
1505088291.76,52214,14.38,73578.5,4.55,-8.25,-6.31,0,*72
1505088293.02,52215,14.38,73580.8,4.55,-4.73,-2.47,0,*79
1505088294.25,52216,14.38,73568.3,4.53,-2.67,-0.93,0,*44
1505088295.47,52217,14.38,73568.8,4.53,-3.27,-1.35,0,*7D
1505088296.69,52218,14.38,73586.0,4.55,-2.43,-1.21,0,*72
1505088297.93,52219,14.38,73586.8,4.53,-2.51,-1.87,0,*7A
1505088299.14,52220,14.38,73584.8,4.55,-3.11,-2.19,0,*77
1505088300.36,52221,14.38,73592.5,4.53,-1.87,-1.59,0,*7A
1505088301.57,52222,14.38,73596.5,4.53,-2.91,-2.55,0,*72
1505088302.76,52223,14.38,73602.0,4.53,-4.41,-3.39,0,*73
1505088303.96,52224,14.38,73594.5,4.53,-5.35,-4.29,0,*70
1505088305.15,52225,14.38,73604.3,4.53,-8.75,-6.55,0,*71
1505088306.37,52226,14.38,73596.3,4.53,-10.31,-7.39,0,*40
1505088307.57,52227,14.38,73588.0,4.53,-10.19,-9.19,0,*47
1505088308.75,52228,14.38,73586.8,4.53,-9.75,-8.67,0,*72
1505088309.97,52229,14.38,73588.0,4.53,-9.45,-8.93,0,*7B
1505088311.2,52230,14.38,73592.8,4.51,-8.67,-7.69,0,*7A
1505088312.46,52231,14.38,73586.8,4.51,-7.99,-7.73,0,*7E
1505088313.7,52232,14.38,73590.8,4.51,-5.73,-6.35,0,*78
1505088314.91,52233,14.38,73588.0,4.51,-3.87,-4.41,0,*75
1505088316.13,52234,14.38,73572.8,4.51,-3.91,-2.79,0,*78
1505088317.39,52235,14.38,73572.0,4.51,-1.91,-1.91,0,*7E
1505088318.6,52236,14.38,73582.8,4.49,-0.81,-1.05,0,*49
1505088319.83,52237,14.38,73572.3,4.51,-0.27,-0.03,0,*4A
1505088321.03,52238,14.38,73576.8,4.51,-0.19,-0.03,0,*48
1505088322.2,52239,14.38,73582.5,4.49,-0.33,0.09,0,*6F
1505088323.43,52240,14.38,73576.3,4.51,-0.93,-0.15,0,*72
1505088324.64,52241,14.38,73588.3,4.51,-1.79,-0.49,0,*4F
1505088325.87,52242,14.38,73582.3,4.51,-0.41,0.21,0,*55
1505088327.06,52243,14.38,73580.3,4.51,-0.65,0.01,0,*60
1505088328.26,52244,14.38,73590.8,4.51,-0.77,-0.19,0,*70
1505088329.48,52245,14.38,73586.0,4.53,-2.23,-2.11,0,*7A
1505088330.67,52246,14.38,73576.0,4.53,-4.33,-5.97,0,*77
1505088331.87,52247,14.38,73566.8,4.53,-4.09,-6.81,0,*7B
1505088333.06,52248,14.38,73572.3,4.53,-1.67,-4.09,0,*7B
1505088334.27,52249,14.38,73582.5,4.53,-0.49,-2.11,0,*48
1505088335.49,52250,14.38,73580.0,4.53,-1.17,-1.39,0,*73
1505088336.67,52251,14.38,73586.5,4.53,-0.53,-0.03,0,*4B
1505088337.86,52252,14.38,73600.0,4.53,-0.07,0.37,0,*63
1505088339.07,52253,14.38,73586.0,4.53,-0.89,-0.03,0,*4E
1505088340.25,52254,14.38,73570.0,4.53,-2.23,-0.53,0,*4E
1505088341.48,52255,14.38,73564.3,4.53,-1.99,0.13,0,*64
1505088342.7,52256,14.38,73564.3,4.53,0.55,1.43,0,*4F
1505088343.93,52257,14.38,73558.0,4.53,2.13,2.39,0,*70
1505088345.14,52258,14.38,73568.5,4.53,2.55,2.61,0,*70
1505088346.37,52259,14.38,73576.0,4.53,2.55,2.51,0,*72
1505088347.61,52260,14.38,73572.3,4.53,2.17,2.05,0,*7F
1505088348.84,52261,14.38,73578.3,4.53,1.55,1.43,0,*7A
1505088350.06,52262,14.38,73578.5,4.53,0.83,1.09,0,*4D
1505088351.28,52263,14.38,73570.0,4.53,0.37,1.17,0,*4C
1505088352.51,52264,14.38,73572.5,4.53,0.87,1.09,0,*4F
1505088353.73,52265,14.38,73570.0,4.53,1.47,1.29,0,*71
1505088354.96,52266,14.38,73568.5,4.53,2.01,1.55,0,*78
1505088356.2,52267,14.38,73562.8,4.53,2.43,2.13,0,*7E
1505088357.45,52268,14.38,73572.8,4.55,2.47,2.09,0,*78
1505088358.68,52269,14.38,73572.8,4.53,2.51,2.05,0,*74
1505088359.91,52270,14.38,73560.0,4.55,2.77,2.35,0,*7D
1505088361.14,52271,14.38,73564.5,4.55,3.15,2.91,0,*77
1505088362.37,52272,14.38,73558.3,4.53,3.11,3.03,0,*7C
1505088363.63,52273,14.38,73560.0,4.55,3.19,3.15,0,*74
1505088364.89,52274,14.38,73560.3,4.55,3.15,3.15,0,*7F
1505088366.12,52275,14.38,73574.8,4.55,3.25,3.37,0,*7D
1505088367.35,52276,14.38,73564.8,4.55,3.25,3.41,0,*7F
1505088368.59,52277,14.38,73568.5,4.55,3.25,3.41,0,*7E
1505088369.82,52278,14.38,73570.5,4.55,3.25,3.41,0,*71
1505088371.04,52279,14.38,73570.0,4.53,3.15,3.25,0,*77
1505088372.27,52280,14.38,73574.0,4.55,3.15,3.25,0,*77
1505088373.53,52281,14.38,73560.0,4.55,3.15,3.37,0,*75
1505088374.77,52282,14.38,73558.3,4.55,3.07,3.29,0,*7A
1505088376.01,52283,14.38,73556.0,4.55,2.69,3.07,0,*7E
1505088377.25,52284,14.38,73570.0,4.55,1.93,2.65,0,*7A
1505088378.48,52285,14.38,73572.3,4.55,1.21,2.31,0,*73
1505088379.67,52286,14.38,73542.8,4.55,-0.61,1.01,0,*68
1505088380.91,52287,14.38,73538.8,4.55,-2.47,-0.61,0,*45
1505088382.14,52288,14.38,73522.5,4.55,-1.43,-0.03,0,*79
1505088383.36,52289,14.38,73530.0,4.55,-0.11,0.63,0,*55
1505088384.61,52290,14.38,73534.3,4.55,0.63,0.91,0,*78
1505088385.87,52291,14.38,73542.3,4.55,1.33,1.21,0,*77
1505088387.12,52292,14.38,73558.3,4.55,1.25,1.47,0,*73
1505088388.33,52293,14.38,73570.5,4.55,0.37,0.97,0,*7C
1505088389.56,52294,14.38,73560.0,4.55,-1.63,-0.89,0,*44
1505088390.77,52295,14.38,73560.8,4.55,-3.83,-3.23,0,*7A
1505088392.03,52296,14.38,73574.5,4.55,-5.27,-4.77,0,*77
1505088393.3,52297,14.38,73560.5,4.55,-6.19,-5.73,0,*7D
1505088394.49,52298,14.38,73562.5,4.57,-3.83,-3.07,0,*73
1505088395.69,52299,14.38,73582.3,4.53,-2.99,-2.23,0,*7B
1505088396.93,52300,14.38,73588.0,4.55,-3.59,-2.83,0,*7B
1505088398.19,52301,14.38,73578.5,4.55,-3.71,-3.47,0,*79
1505088399.4,52302,14.38,73572.5,4.53,-2.55,-2.39,0,*73
1505088400.61,52303,14.38,73586.5,4.53,-2.27,-1.87,0,*71
1505088401.83,52304,14.38,73592.8,4.55,-1.33,-0.73,0,*4C
1505088403.07,52305,14.38,73598.5,4.55,-1.13,-0.45,0,*4A
1505088404.3,52306,14.38,73602.8,4.55,-1.35,-0.69,0,*43
1505088405.5,52307,14.38,73594.8,4.53,-4.09,-3.27,0,*77
1505088406.73,52308,14.38,73588.8,4.55,-4.61,-3.71,0,*73
1505088407.91,52309,14.38,73584.0,4.57,-2.79,-2.83,0,*73
1505088409.18,52310,14.38,73596.3,4.55,-2.63,-2.51,0,*7D
1505088410.42,52311,14.38,73596.3,4.55,-5.07,-3.87,0,*73
1505088411.64,52312,14.38,73592.5,4.55,-6.43,-4.29,0,*70
1505088412.88,52313,14.38,73594.3,4.53,-5.07,-3.55,0,*78
1505088414.06,52314,14.38,73594.8,4.53,-4.99,-3.31,0,*7B
1505088415.3,52315,14.38,73594.5,4.55,-4.01,-3.07,0,*78
1505088416.55,52316,14.38,73586.3,4.53,-2.55,-2.51,0,*78
1505088417.75,52317,14.38,73576.5,4.55,-0.33,-0.45,0,*7A
1505088419.01,52318,14.38,73582.5,4.55,1.37,1.25,0,*77
1505088420.24,52319,14.38,73584.3,4.55,2.35,2.17,0,*75
1505088421.48,52320,14.38,73588.8,4.57,3.07,2.81,0,*72
1505088422.74,52321,14.38,73576.3,4.55,3.15,2.89,0,*7A
1505088423.97,52322,14.38,73578.3,4.55,3.29,3.03,0,*75
1505088425.2,52323,14.38,73576.8,4.55,3.53,3.25,0,*7D
1505088426.4,52324,14.38,73572.3,4.55,3.63,3.59,0,*72
1505088427.63,52325,14.38,73576.0,4.55,3.75,3.59,0,*74
1505088428.86,52326,14.38,73578.0,4.55,3.81,3.71,0,*76
1505088430.09,52327,14.38,73586.3,4.55,3.75,3.63,0,*7F
1505088431.29,52328,14.38,73590.8,4.61,3.85,3.67,0,*7C
1505088432.52,52329,14.38,73598.5,4.57,3.79,3.75,0,*78
1505088433.72,52330,14.38,73598.0,4.57,3.67,3.63,0,*78
1505088434.95,52331,14.38,73588.3,4.57,3.53,3.41,0,*7E
1505088436.18,52332,14.38,73582.5,4.57,3.23,3.23,0,*7E
1505088437.37,52333,14.38,73578.3,4.57,2.95,2.85,0,*7E
1505088438.6,52334,14.38,73568.0,4.57,2.73,2.47,0,*7F
1505088439.82,52335,14.38,73552.3,4.57,3.19,2.73,0,*74
1505088441.05,52336,14.38,73562.3,4.57,3.11,2.69,0,*74
1505088442.28,52337,14.38,73580.0,4.57,3.07,2.59,0,*71
1505088443.51,52338,14.38,73588.8,4.57,2.59,2.25,0,*7F
1505088444.71,52339,14.38,73584.3,4.57,2.47,1.79,0,*7B
1505088445.94,52340,14.38,73576.3,4.57,2.09,1.13,0,*73
1505088447.16,52341,14.38,73588.3,4.57,1.17,0.29,0,*46
1505088448.36,52342,14.38,73592.0,4.57,0.67,-0.33,0,*55
1505088449.55,52343,14.38,73584.8,4.57,0.67,-0.19,0,*5C
1505088450.76,52344,14.38,73578.3,4.57,0.63,-0.23,0,*56
1505088451.97,52345,14.38,73574.5,4.57,0.55,-0.19,0,*5B
1505088453.19,52346,14.38,73562.8,4.57,1.67,0.51,0,*49
1505088454.44,52347,14.38,73574.8,4.55,2.05,0.51,0,*4D
1505088455.7,52348,14.38,73572.3,4.55,2.17,1.21,0,*77
1505088456.95,52349,14.38,73576.8,4.55,2.09,2.09,0,*70
1505088458.18,52350,14.38,73580.0,4.55,1.93,2.27,0,*74
1505088459.4,52351,14.38,73580.3,4.55,2.31,2.59,0,*77
1505088460.66,52352,14.38,73586.5,4.55,2.47,2.69,0,*76
1505088461.91,52353,14.38,73592.5,4.55,2.55,2.81,0,*72
1505088463.14,52354,14.38,73588.5,4.55,2.65,3.07,0,*79
1505088464.37,52355,14.38,73586.0,4.55,2.65,3.07,0,*78
1505088465.58,52356,14.38,73590.0,4.57,2.61,3.03,0,*79
1505088466.81,52357,14.38,73588.3,4.57,2.51,3.03,0,*7B
1505088468.07,52358,14.38,73580.0,4.55,2.43,2.81,0,*7E
1505088469.32,52359,14.38,73578.3,4.55,2.21,2.81,0,*7B
1505088470.55,52360,14.38,73584.5,4.55,1.71,2.65,0,*7D
1505088471.81,52361,14.38,73596.5,4.55,1.09,2.25,0,*77
1505088473.05,52362,14.38,73580.0,4.55,0.59,1.93,0,*4E
1505088474.23,52363,14.38,73578.3,4.57,0.17,1.41,0,*48
1505088475.41,52364,14.38,73582.5,4.53,-0.57,1.01,0,*66
1505088476.65,52365,14.38,73584.5,4.55,-1.21,1.33,0,*50
1505088477.85,52366,14.38,73580.3,4.55,-0.15,1.75,0,*67
1505088479.08,52367,14.38,73574.3,4.55,1.09,2.31,0,*74
1505088480.31,52368,14.38,73580.8,4.55,1.83,2.59,0,*77
1505088481.56,52369,14.38,73584.0,4.55,2.09,2.59,0,*77
1505088482.79,52370,14.38,73578.8,4.55,2.21,2.65,0,*7A
1505088484.04,52371,14.38,73576.0,4.55,2.21,2.77,0,*78
1505088485.3,52372,14.38,73580.8,4.55,1.85,2.81,0,*7F
1505088486.51,52373,14.38,73578.3,4.57,1.79,2.81,0,*7F
1505088487.74,52374,14.38,73580.5,4.57,1.97,3.03,0,*73
1505088488.94,52375,14.38,73582.5,4.57,2.09,2.91,0,*7C
1505088490.16,52376,14.38,73578.3,4.57,2.39,2.85,0,*79
1505088491.41,52377,14.38,73586.0,4.55,2.43,2.69,0,*75
1505088492.63,52378,14.38,73584.5,4.57,2.69,3.19,0,*76
1505088493.84,52379,14.38,73586.3,4.61,3.11,3.29,0,*7F
1505088495.06,52380,14.38,73584.0,4.57,3.33,3.53,0,*71
1505088496.26,52381,14.38,73588.3,4.57,3.53,3.63,0,*75
1505088497.43,52382,14.38,73584.0,4.61,3.63,3.63,0,*70
1505088498.63,52383,14.38,73590.3,4.57,3.55,3.67,0,*75
1505088499.82,52384,14.38,73584.5,4.57,3.55,3.67,0,*72
1505088501.05,52385,14.38,73586.0,4.57,3.75,3.79,0,*7E
1505088502.26,52386,14.38,73586.3,4.61,3.75,3.85,0,*7B
1505088503.49,52387,14.38,73586.0,4.57,3.75,3.79,0,*7C
1505088504.69,52388,14.38,73580.5,4.57,3.79,3.85,0,*7C
1505088505.87,52389,14.38,73582.8,4.61,3.85,3.85,0,*7B
1505088507.05,52390,14.38,73582.8,4.61,3.85,3.89,0,*7F
1505088508.24,52391,14.38,73582.5,4.61,3.89,3.89,0,*72
1505088509.41,52392,14.38,73584.5,4.61,3.85,3.85,0,*71
1505088510.62,52393,14.38,73584.8,4.61,3.79,3.85,0,*73
1505088511.8,52394,14.38,73588.5,4.61,3.85,3.85,0,*77
1505088513.0,52395,14.38,73584.5,4.61,3.79,3.85,0,*75
1505088514.2,52396,14.38,73582.3,4.61,3.85,3.79,0,*76
1505088515.38,52397,14.38,73582.3,4.61,3.85,3.85,0,*74
1505088516.61,52398,14.38,73584.0,4.61,3.79,3.79,0,*7B
1505088517.85,52399,14.38,73588.5,4.61,3.67,3.67,0,*7A
1505088519.02,52400,14.38,73590.0,4.61,3.55,3.55,0,*7D
1505088520.19,52401,14.38,73594.5,4.61,3.63,3.63,0,*7C
1505088521.37,52402,14.38,73592.8,4.61,3.63,3.63,0,*7F
1505088522.54,52403,14.38,73588.0,4.57,3.63,3.55,0,*7E